• en France
  • Liste des pays
  • À 7 jours
  • Température de l'eau
  • Carte satellitaire
  • Carte météo
  • Widgets météo
  • user-avatar
    Se connecter

    Météo par heure à Paulinow

    Ce jour, 22 Juin, Vendredi

    Heure Température Précipitation Vent Pression Humidité
    00:00 +10°C° 0 mm 5 m/s 751 mmHg 70%
    01:00 +10°C° 0 mm 3 m/s 751 mmHg 70%
    02:00 +10°C° 0 mm 4 m/s 751 mmHg 70%
    03:00 +10°C° 0 mm 4 m/s 752 mmHg 70%
    04:00 +9°C° 0 mm 5 m/s 752 mmHg 69%
    05:00 +10°C° 0 mm 5 m/s 752 mmHg 68%
    06:00 +11°C° 0 mm 6 m/s 752 mmHg 67%
    07:00 +11°C° 0 mm 6 m/s 752 mmHg 65%
    08:00 +13°C° 0 mm 6 m/s 752 mmHg 62%
    09:00 +14°C° 0 mm 6 m/s 752 mmHg 59%
    10:00 +15°C° 0 mm 6 m/s 753 mmHg 56%
    11:00 +16°C° 0,2 mm 6 m/s 753 mmHg 55%
    12:00 +16°C° 0,2 mm 6 m/s 753 mmHg 54%
    13:00 +17°C° 0,2 mm 6 m/s 753 mmHg 53%
    14:00 +17°C° 0,1 mm 6 m/s 752 mmHg 52%
    15:00 +17°C° 0,1 mm 5 m/s 752 mmHg 52%
    16:00 +18°C° 0,1 mm 4 m/s 752 mmHg 51%
    17:00 +17°C° 0,2 mm 4 m/s 752 mmHg 57%
    18:00 +15°C° 0,2 mm 4 m/s 752 mmHg 64%
    19:00 +14°C° 0,2 mm 3 m/s 752 mmHg 70%
    20:00 +13°C° 0 mm 3 m/s 753 mmHg 75%
    21:00 +12°C° 0 mm 3 m/s 753 mmHg 80%
    22:00 +10°C° 0 mm 3 m/s 753 mmHg 84%
    23:00 +10°C° 0 mm 3 m/s 753 mmHg 86%

    Demain, 23 Juin, Samedi

    Heure Température Précipitation Vent Pression Humidité
    00:00 +10°C° 0 mm 3 m/s 753 mmHg 88%
    01:00 +9°C° 0 mm 3 m/s 753 mmHg 90%
    02:00 +9°C° 0 mm 3 m/s 753 mmHg 91%
    03:00 +9°C° 0 mm 3 m/s 753 mmHg 93%
    04:00 +8°C° 0 mm 4 m/s 753 mmHg 94%
    05:00 +10°C° 0 mm 4 m/s 753 mmHg 89%
    06:00 +10°C° 0 mm 5 m/s 753 mmHg 85%
    07:00 +11°C° 0 mm 6 m/s 753 mmHg 80%
    08:00 +11°C° 0,3 mm 6 m/s 753 mmHg 79%
    09:00 +13°C° 0,3 mm 6 m/s 753 mmHg 77%
    10:00 +13°C° 0,3 mm 6 m/s 753 mmHg 76%
    11:00 +12°C° 0,2 mm 7 m/s 753 mmHg 72%
    12:00 +14°C° 0,2 mm 7 m/s 753 mmHg 69%
    13:00 +14°C° 0,2 mm 7 m/s 752 mmHg 66%
    14:00 +15°C° 0,2 mm 7 m/s 752 mmHg 65%
    15:00 +15°C° 0,2 mm 7 m/s 752 mmHg 65%
    16:00 +16°C° 0,2 mm 7 m/s 752 mmHg 65%
    17:00 +15°C° 0,2 mm 6 m/s 752 mmHg 69%
    18:00 +14°C° 0,2 mm 5 m/s 752 mmHg 74%
    19:00 +14°C° 0,2 mm 4 m/s 752 mmHg 79%
    20:00 +13°C° 0,1 mm 4 m/s 752 mmHg 83%
    21:00 +12°C° 0,1 mm 4 m/s 752 mmHg 86%
    22:00 +12°C° 0,1 mm 4 m/s 753 mmHg 90%
    23:00 +11°C° 0 mm 4 m/s 753 mmHg 91%

    Après-demain, 24 Juin, Dimanche

    Heure Température Précipitation Vent Pression Humidité
    00:00 +10°C° 0 mm 4 m/s 753 mmHg 92%
    01:00 +10°C° 0 mm 3 m/s 753 mmHg 93%
    02:00 +9°C° 0 mm 3 m/s 753 mmHg 93%
    03:00 +9°C° 0 mm 3 m/s 753 mmHg 94%
    04:00 +9°C° 0 mm 3 m/s 753 mmHg 95%
    05:00 +10°C° 0 mm 4 m/s 753 mmHg 92%
    06:00 +11°C° 0 mm 4 m/s 753 mmHg 90%
    07:00 +13°C° 0 mm 4 m/s 753 mmHg 87%
    08:00 +14°C° 0,1 mm 5 m/s 753 mmHg 82%
    09:00 +15°C° 0,1 mm 5 m/s 753 mmHg 78%
    10:00 +16°C° 0,1 mm 6 m/s 753 mmHg 73%
    11:00 +17°C° 0,2 mm 5 m/s 753 mmHg 69%
    12:00 +19°C° 0,2 mm 5 m/s 753 mmHg 64%
    13:00 +20°C° 0,2 mm 5 m/s 753 mmHg 59%
    14:00 +20°C° 0,5 mm 5 m/s 753 mmHg 61%
    15:00 +20°C° 0,5 mm 5 m/s 753 mmHg 63%
    16:00 +19°C° 0,5 mm 5 m/s 752 mmHg 65%
    17:00 +18°C° 0,7 mm 4 m/s 753 mmHg 71%
    18:00 +17°C° 0,7 mm 4 m/s 753 mmHg 76%
    19:00 +16°C° 0,7 mm 3 m/s 753 mmHg 82%
    20:00 +16°C° 0,2 mm 3 m/s 753 mmHg 84%
    21:00 +15°C° 0,2 mm 2 m/s 753 mmHg 87%
    22:00 +14°C° 0,2 mm 2 m/s 754 mmHg 89%
    23:00 +13°C° 0 mm 2 m/s 754 mmHg 90%

    25 Juin, Lundi

    Heure Température Précipitation Vent Pression Humidité
    00:00 +13°C° 0 mm 2 m/s 754 mmHg 91%
    01:00 +12°C° 0 mm 2 m/s 754 mmHg 93%
    02:00 +12°C° 0 mm 2 m/s 754 mmHg 93%
    03:00 +10°C° 0 mm 2 m/s 754 mmHg 93%
    04:00 +10°C° 0 mm 2 m/s 754 mmHg 93%
    05:00 +13°C° 0 mm 2 m/s 755 mmHg 89%
    06:00 +14°C° 0 mm 2 m/s 755 mmHg 84%
    07:00 +16°C° 0 mm 2 m/s 755 mmHg 79%
    08:00 +17°C° 0,1 mm 2 m/s 755 mmHg 73%
    09:00 +18°C° 0,1 mm 2 m/s 755 mmHg 68%
    10:00 +19°C° 0,1 mm 2 m/s 756 mmHg 63%
    11:00 +20°C° 0,1 mm 3 m/s 755 mmHg 58%
    12:00 +21°C° 0,1 mm 3 m/s 755 mmHg 53%
    13:00 +22°C° 0,1 mm 3 m/s 755 mmHg 49%
    14:00 +22°C° 0 mm 3 m/s 755 mmHg 49%
    15:00 +24°C° 0 mm 3 m/s 755 mmHg 50%
    16:00 +24°C° 0 mm 2 m/s 755 mmHg 51%
    17:00 +23°C° 0 mm 2 m/s 756 mmHg 55%
    18:00 +21°C° 0 mm 2 m/s 756 mmHg 60%
    19:00 +21°C° 0 mm 1 m/s 756 mmHg 64%
    20:00 +19°C° 0 mm 2 m/s 756 mmHg 67%
    21:00 +18°C° 0 mm 2 m/s 757 mmHg 71%
    22:00 +16°C° 0 mm 2 m/s 757 mmHg 74%
    23:00 +16°C° 0 mm 2 m/s 757 mmHg 77%

    26 Juin, Mardi

    Heure Température Précipitation Vent Pression Humidité
    00:00 +15°C° 0 mm 2 m/s 757 mmHg 80%
    01:00 +15°C° 0 mm 2 m/s 757 mmHg 83%
    02:00 +14°C° 0 mm 2 m/s 757 mmHg 85%
    03:00 +14°C° 0 mm 2 m/s 757 mmHg 87%
    04:00 +14°C° 0 mm 2 m/s 757 mmHg 89%
    05:00 +15°C° 0 mm 2 m/s 757 mmHg 84%
    06:00 +17°C° 0 mm 2 m/s 757 mmHg 79%
    07:00 +19°C° 0 mm 2 m/s 758 mmHg 75%
    08:00 +20°C° 0,2 mm 2 m/s 758 mmHg 70%
    09:00 +21°C° 0,2 mm 2 m/s 757 mmHg 65%
    10:00 +22°C° 0,2 mm 3 m/s 757 mmHg 60%
    11:00 +24°C° 0,2 mm 3 m/s 757 mmHg 59%
    12:00 +24°C° 0,2 mm 3 m/s 757 mmHg 57%
    13:00 +25°C° 0,2 mm 3 m/s 757 mmHg 56%
    14:00 +24°C° 0,2 mm 3 m/s 757 mmHg 57%
    15:00 +24°C° 0,2 mm 3 m/s 757 mmHg 58%
    16:00 +24°C° 0,2 mm 2 m/s 756 mmHg 59%
    17:00 +24°C° 0 mm 2 m/s 756 mmHg 62%
    18:00 +23°C° 0 mm 1 m/s 756 mmHg 65%
    19:00 +22°C° 0 mm 1 m/s 756 mmHg 69%
    20:00 +21°C° 0 mm 1 m/s 757 mmHg 73%
    21:00 +20°C° 0 mm 1 m/s 757 mmHg 76%
    22:00 +18°C° 0 mm 1 m/s 757 mmHg 80%
    23:00 +18°C° 0 mm 1 m/s 757 mmHg 82%

    27 Juin, Mercredi

    Heure Température Précipitation Vent Pression Humidité
    00:00 +16°C° 0 mm 2 m/s 757 mmHg 84%
    01:00 +16°C° 0 mm 2 m/s 757 mmHg 86%
    02:00 +15°C° 0 mm 2 m/s 757 mmHg 87%
    03:00 +15°C° 0 mm 2 m/s 757 mmHg 88%
    04:00 +13°C° 0 mm 3 m/s 757 mmHg 89%
    05:00 +14°C° 0 mm 3 m/s 758 mmHg 83%
    06:00 +17°C° 0 mm 4 m/s 758 mmHg 76%
    07:00 +18°C° 0 mm 4 m/s 758 mmHg 70%
    08:00 +20°C° 0 mm 5 m/s 758 mmHg 64%
    09:00 +21°C° 0 mm 5 m/s 758 mmHg 57%
    10:00 +23°C° 0 mm 5 m/s 758 mmHg 51%
    11:00 +23°C° 0 mm 5 m/s 757 mmHg 49%
    12:00 +25°C° 0 mm 5 m/s 757 mmHg 46%
    13:00 +26°C° 0 mm 5 m/s 757 mmHg 44%
    14:00 +26°C° 0 mm 5 m/s 757 mmHg 45%
    15:00 +26°C° 0 mm 5 m/s 757 mmHg 46%
    16:00 +26°C° 0 mm 4 m/s 757 mmHg 46%
    17:00 +25°C° 0 mm 4 m/s 757 mmHg 52%
    18:00 +23°C° 0 mm 4 m/s 757 mmHg 57%
    19:00 +22°C° 0 mm 3 m/s 757 mmHg 62%
    20:00 +20°C° 0 mm 3 m/s 757 mmHg 67%
    21:00 +18°C° 0 mm 3 m/s 757 mmHg 71%
    22:00 +16°C° 0 mm 3 m/s 757 mmHg 76%
    23:00 +16°C° 0 mm 3 m/s 757 mmHg 81%
    Voir plus